Theta_e
319 318 317 317 317 318 322 325 329 334 335 336 335 335 334 331 332 330 330 330 332 330 329 331 330 331 332 334 336 332 330 340 344 344 345 336 329 332 331 332 336 338 341 343 344 346 344 341 334 328 329 327 326 328 329 331 332 332 332 332 332 331 331 332 332 332 331 331 331 330 330 329 328 325 325 325 317 313 314 317 317 317 319 316 315 325 332 336 337 337 338 338 337 336 333 330 327
317 317 317 316 317 318 322 324 329 336 337 338 337 335 334 331 329 329 330 331 332 330 329 331 331 331 331 332 331 332 333 332 332 335 335 330 330 331 330 333 335 337 340 341 344 345 343 340 334 329 329 327 327 328 330 331 331 332 332 332 332 332 332 331 331 331 331 331 331 330 329 328 327 325 327 324 316 313 315 318 318 319 319 315 319 332 335 336 337 337 338 337 335 333 330 328 323
317 317 316 317 317 317 321 322 327 331 330 335 337 336 334 331 333 331 329 328 330 329 330 331 331 331 331 333 332 336 338 331 329 329 328 329 330 329 330 333 333 337 338 339 342 344 342 339 334 330 329 328 328 329 330 331 331 332 332 332 331 331 330 329 328 328 329 330 330 330 328 328 327 325 329 325 316 313 313 315 317 322 321 317 325 334 335 335 337 337 337 336 334 331 329 326 320
316 316 316 316 316 319 324 324 329 328 325 330 333 334 333 331 334 331 327 327 329 329 330 330 331 330 331 333 332 337 337 332 330 328 328 328 328 328 329 332 333 336 336 336 340 342 342 338 334 331 330 328 328 329 330 330 330 330 329 328 328 327 327 326 326 327 328 329 329 329 328 327 327 327 330 327 320 314 312 312 317 325 324 323 330 334 334 336 336 336 336 335 333 330 329 325 318
315 316 316 315 317 321 324 325 328 327 324 331 333 335 333 330 331 330 327 327 329 329 329 329 332 331 330 332 332 336 336 332 330 328 328 328 328 327 328 330 331 336 336 335 339 341 341 337 335 333 330 328 327 327 328 328 327 326 325 324 323 323 323 324 325 326 327 328 329 328 328 328 327 329 331 329 325 319 314 312 315 325 329 326 329 332 333 336 336 337 336 334 333 330 329 323 317
314 315 316 316 318 319 321 323 324 325 324 329 332 331 332 331 329 328 326 326 328 328 328 329 332 331 330 331 330 331 332 330 329 328 328 328 328 327 327 328 330 334 335 336 339 340 340 336 336 335 331 329 327 327 326 326 326 325 324 322 322 322 322 322 324 324 325 326 327 327 328 328 328 330 331 330 328 323 317 313 312 319 329 330 329 332 333 335 336 336 336 334 332 329 328 322 316
314 315 317 319 320 319 321 322 321 323 322 325 327 325 328 331 327 326 327 326 328 328 329 330 330 331 331 331 331 330 330 330 328 328 330 328 328 327 328 329 329 332 333 335 339 341 340 337 335 337 334 330 328 327 326 326 326 325 324 323 322 322 321 322 324 324 325 327 327 327 328 327 329 331 332 331 328 324 319 314 313 314 324 329 329 333 332 334 335 336 337 334 332 329 328 322 316
315 316 317 320 322 319 321 322 320 321 322 323 324 323 323 327 325 325 327 327 329 328 329 330 328 331 332 331 331 332 331 329 329 329 329 328 328 327 328 329 329 331 333 335 338 340 339 338 336 337 336 334 331 328 327 326 326 326 324 324 323 323 322 323 326 326 327 327 327 327 328 328 330 332 332 332 325 321 319 315 315 313 316 321 326 331 331 332 334 335 335 334 331 329 328 321 317
317 318 318 319 321 320 319 320 319 320 322 323 321 322 321 323 323 324 326 327 329 328 329 329 328 330 331 331 331 331 331 329 330 330 329 328 328 327 329 330 330 330 332 334 338 337 335 337 337 337 337 336 334 329 327 327 327 326 326 325 324 325 323 324 327 327 327 326 327 328 329 330 332 334 333 332 324 318 319 316 317 319 318 318 321 327 329 330 332 334 334 333 331 329 328 322 317
318 319 319 320 319 318 317 318 319 321 322 321 320 321 322 322 321 322 324 325 328 328 329 329 328 329 330 334 333 330 330 329 330 330 329 328 328 328 328 330 331 331 331 333 337 336 333 336 337 338 338 336 334 330 327 327 327 327 326 326 325 325 324 324 326 327 326 325 327 329 330 333 333 334 334 332 323 317 319 319 321 322 322 321 319 323 325 327 331 332 332 332 329 328 328 324 318
318 319 319 319 319 317 317 318 319 321 321 320 321 321 321 322 321 321 320 322 328 328 328 329 328 327 331 336 333 329 330 330 329 329 328 328 329 328 329 331 332 332 331 331 333 333 333 335 338 339 339 337 333 330 328 327 327 327 327 327 326 326 325 324 325 328 327 325 328 327 329 334 335 335 334 332 324 318 321 322 321 320 319 319 317 319 320 322 328 330 331 330 328 327 326 324 319
320 318 318 318 319 318 318 319 319 321 322 322 322 321 322 321 321 320 320 321 325 327 326 328 328 329 338 342 335 331 332 331 330 329 328 327 328 329 330 332 333 333 331 331 331 331 333 335 338 340 340 337 334 330 328 328 328 328 328 328 327 327 326 324 325 329 328 327 327 324 330 336 335 336 335 334 327 320 322 322 320 319 321 320 318 318 314 318 328 329 329 328 326 326 323 322 319
320 319 318 319 321 321 320 319 320 324 323 321 321 321 322 321 321 320 320 320 322 325 326 328 327 331 344 345 338 335 331 331 334 333 327 326 328 329 331 332 333 332 330 331 331 330 333 336 338 339 340 338 335 331 329 328 328 328 328 328 328 327 327 325 324 329 329 328 325 321 329 336 334 336 335 335 330 322 321 321 319 320 325 323 320 320 313 316 326 326 327 326 325 324 322 320 319
320 320 319 320 322 321 321 319 320 322 321 320 321 321 322 321 321 321 321 321 321 323 326 329 327 334 345 348 345 339 330 331 337 334 327 327 329 329 333 334 333 333 332 333 332 331 332 335 338 339 340 339 336 333 331 329 328 328 328 328 328 328 328 327 325 328 330 328 324 318 325 334 334 336 335 335 332 324 321 320 320 322 326 323 319 319 313 314 322 324 324 324 324 323 321 319 319
320 319 320 321 321 320 320 320 320 319 320 322 321 320 321 322 322 322 321 322 321 322 325 329 328 333 342 348 347 335 326 329 336 336 329 328 329 329 333 335 336 334 334 335 335 334 333 334 337 340 340 339 337 336 333 330 329 328 328 328 328 328 328 328 326 326 329 329 327 320 321 332 335 335 336 335 333 327 322 321 321 323 325 324 320 319 316 314 319 322 322 322 322 322 319 319 319
320 319 321 322 320 319 319 320 321 321 323 324 322 321 321 322 322 321 322 321 321 323 324 328 330 330 331 336 334 325 323 330 335 338 333 329 331 331 335 338 339 338 337 338 338 337 335 333 336 339 339 339 338 336 335 332 330 328 328 329 328 328 328 328 327 326 328 329 330 325 320 330 336 336 336 335 334 329 325 323 322 323 323 323 321 320 319 316 319 321 321 322 321 320 319 319 319
320 319 321 322 319 320 321 322 322 321 324 325 321 321 321 321 322 322 322 322 322 324 324 326 329 327 325 329 324 321 325 329 337 341 336 332 333 334 338 342 342 341 340 341 340 338 336 334 336 338 338 338 337 337 336 333 331 329 328 328 328 328 328 328 329 327 327 328 331 329 323 328 335 336 337 335 334 332 327 325 324 324 322 322 320 319 319 318 319 320 321 322 321 319 319 319 319
319 321 321 320 322 322 323 322 321 321 324 323 321 321 321 321 322 321 322 323 322 328 330 328 329 327 324 327 324 323 325 329 336 341 337 334 335 335 339 342 341 339 340 342 342 339 338 336 335 337 337 337 338 337 336 334 332 329 328 329 328 328 328 328 329 328 327 326 329 331 327 327 333 335 337 335 334 332 329 326 325 325 324 322 319 316 319 319 319 321 323 323 322 320 319 319 321
319 323 321 322 325 324 322 321 320 321 322 321 322 322 322 322 321 320 322 322 320 330 337 330 328 329 327 327 324 323 325 328 333 337 336 332 333 334 335 338 337 337 338 342 341 338 339 337 335 336 336 337 337 337 336 335 333 331 329 328 328 328 329 328 329 329 328 327 328 329 328 327 331 334 335 335 334 333 330 328 326 326 324 323 321 317 317 320 321 322 323 323 322 320 320 320 322
320 319 321 324 325 322 321 321 322 321 321 321 321 323 321 322 322 320 321 321 320 328 337 334 332 332 329 327 326 324 325 328 330 333 334 331 332 332 332 334 332 332 333 340 340 336 340 339 336 335 336 337 337 337 336 336 333 332 330 329 329 329 329 329 329 329 329 329 328 329 328 328 329 331 334 335 335 334 332 329 328 326 324 324 324 321 317 318 321 323 322 322 322 320 320 321 323
320 320 322 323 321 321 322 323 323 322 322 321 322 321 322 322 321 322 319 322 325 325 329 332 332 330 328 328 327 327 327 328 332 334 333 333 334 333 332 330 328 329 331 338 338 335 338 338 335 334 336 338 337 337 337 336 335 333 332 330 330 330 331 330 330 330 330 330 330 330 329 328 328 330 332 334 335 335 332 330 330 328 324 323 323 323 320 317 318 322 323 322 321 320 320 321 324
320 320 320 320 319 321 322 322 322 322 323 322 321 322 322 322 321 322 321 322 326 324 323 327 327 326 326 327 328 330 329 329 334 335 333 333 336 335 333 331 329 330 332 334 334 332 334 335 335 334 336 337 338 338 338 337 336 334 333 332 331 332 332 331 331 332 332 331 330 331 330 329 328 329 330 332 334 335 333 331 332 331 328 326 322 320 321 319 317 318 321 322 321 321 320 321 323
320 320 319 319 320 320 321 321 322 321 321 320 321 322 321 320 320 322 321 321 324 322 323 326 326 327 326 327 328 330 329 330 334 334 331 332 335 336 335 332 330 330 332 333 332 332 332 332 333 331 333 336 337 338 339 338 337 336 334 333 333 333 333 333 333 333 332 332 331 331 331 330 329 329 329 330 333 335 334 332 333 333 332 331 326 321 318 318 319 317 317 319 321 321 320 321 323
319 321 319 319 320 319 320 321 320 320 321 321 321 322 320 320 321 322 321 322 323 323 322 325 327 327 328 328 328 328 329 330 331 331 332 333 335 335 334 332 330 331 333 334 334 333 333 332 332 329 329 333 335 337 338 339 338 337 335 334 333 334 334 334 333 333 333 333 333 332 331 330 330 330 330 330 333 334 334 333 333 333 333 332 331 328 322 318 318 318 316 316 318 321 321 322 323
320 320 319 319 319 319 320 320 321 321 321 321 322 321 321 321 321 320 321 323 324 322 323 325 328 329 330 330 329 329 329 330 331 332 335 337 336 335 334 334 334 335 335 337 337 336 335 334 333 331 328 329 332 335 337 338 338 338 337 336 335 335 335 335 334 334 334 333 333 333 331 331 331 330 331 331 332 334 334 334 333 333 333 333 331 331 329 325 318 318 318 314 315 317 320 322 323
320 318 318 318 319 320 320 321 321 321 321 321 321 321 321 322 321 321 322 323 323 324 323 325 329 331 332 330 330 330 330 331 331 332 334 335 336 336 337 338 339 338 337 339 340 338 338 336 334 333 331 330 331 334 335 337 337 338 338 338 337 336 335 335 335 335 334 334 333 333 331 331 331 330 330 331 333 333 333 334 334 334 334 333 332 331 332 330 320 318 320 317 315 314 317 321 324
319 318 319 319 319 320 320 320 321 321 321 321 320 321 321 320 322 323 325 323 323 324 323 326 332 332 332 332 332 332 331 331 329 330 333 335 337 337 339 342 342 342 341 343 342 342 341 339 336 335 335 334 332 333 334 336 337 338 339 339 338 338 337 336 335 335 335 334 334 333 333 332 332 331 331 331 332 333 333 333 334 334 334 333 333 331 333 332 322 320 324 322 318 315 314 318 321
319 319 319 319 319 319 319 319 320 320 321 321 321 320 320 321 322 324 324 325 324 323 323 327 332 333 331 332 334 334 332 330 330 332 334 335 337 338 340 343 344 344 344 344 344 344 343 342 340 338 338 338 335 333 333 334 336 337 338 338 339 339 338 337 336 336 335 335 334 333 333 333 332 332 331 331 332 333 333 333 333 333 334 333 332 332 333 332 326 325 328 327 325 321 316 317 320
320 320 319 320 319 319 320 320 321 320 320 322 321 320 324 325 323 324 324 325 324 324 323 324 328 330 331 333 335 335 334 333 333 333 335 337 339 340 342 344 345 346 345 346 346 346 345 343 342 342 342 341 339 336 334 334 335 337 337 337 338 339 339 337 336 336 336 335 334 334 333 333 333 332 332 331 331 333 333 332 332 332 332 333 332 332 333 332 330 329 330 331 330 328 324 321 324
321 320 319 320 319 321 323 322 322 321 321 322 320 321 330 332 325 324 325 325 324 324 324 323 325 325 329 336 339 340 338 334 334 336 340 342 343 343 344 346 346 346 347 347 348 347 346 345 344 344 344 343 342 338 336 334 335 337 336 336 337 337 337 337 336 336 336 336 335 334 334 333 332 332 332 332 331 332 332 332 331 331 332 332 332 331 333 332 331 331 330 332 331 331 329 325 327
321 320 320 320 318 321 323 321 322 323 322 322 321 322 330 334 327 325 325 325 324 324 323 323 326 327 332 339 343 343 339 335 337 342 345 346 346 347 347 348 348 348 348 348 349 348 347 347 345 345 345 344 343 341 336 334 336 338 337 338 337 337 337 336 337 337 337 336 336 335 334 334 333 332 332 332 331 331 332 332 331 331 331 332 332 332 333 333 331 331 331 332 331 330 329 328 330
321 319 322 321 317 321 323 321 322 323 323 321 323 325 329 330 327 325 325 324 325 325 323 325 330 335 338 342 343 342 340 340 343 346 348 348 348 349 350 350 349 350 350 350 349 349 348 348 346 346 346 345 344 342 338 334 336 339 339 339 339 338 338 338 338 337 337 337 337 336 335 334 333 332 332 332 332 331 331 332 331 331 331 332 332 332 333 333 332 330 330 331 331 330 329 329 330
326 321 320 322 319 320 323 323 322 322 323 323 323 325 328 328 325 325 325 325 325 325 325 329 333 337 341 344 343 342 343 344 346 348 349 350 350 351 351 352 352 352 352 352 351 351 349 349 347 347 346 346 345 344 340 335 336 340 340 340 341 340 339 339 338 337 338 337 337 337 335 335 333 333 333 332 332 331 332 332 331 331 331 332 332 333 334 333 332 330 329 331 330 330 329 329 330
331 327 322 324 322 320 322 324 323 323 324 325 323 324 325 325 323 322 324 324 324 324 327 331 335 337 340 341 339 339 340 341 341 344 347 349 351 348 349 353 354 353 353 353 353 352 351 350 348 348 347 347 347 345 342 337 336 338 340 340 341 342 341 340 339 338 338 338 338 337 335 335 334 333 332 332 332 331 332 332 331 331 331 332 332 333 333 334 334 331 329 330 330 329 329 329 329
327 326 323 323 322 321 322 323 323 324 325 325 324 324 324 325 324 321 324 325 323 324 328 331 333 335 337 336 335 336 336 336 337 339 341 344 345 342 341 347 351 351 352 352 352 352 350 349 349 348 348 347 347 346 343 340 336 335 338 339 339 341 342 341 339 339 338 337 337 337 336 335 334 334 333 332 332 332 332 332 332 332 331 332 332 332 333 333 334 332 329 329 330 329 329 329 330
323 323 321 320 320 321 322 323 323 323 324 326 324 323 324 324 325 322 323 324 323 325 329 330 330 332 333 332 333 334 334 336 338 340 343 344 345 343 343 346 349 351 351 349 349 348 347 347 347 347 347 346 345 345 345 343 340 336 334 334 336 340 342 342 340 339 338 336 336 336 336 336 335 334 333 333 333 332 332 332 332 332 331 331 331 332 332 333 334 332 329 329 330 329 329 330 330
322 323 321 321 320 321 322 324 324 322 323 326 324 324 325 325 325 324 322 321 325 327 329 330 330 332 332 335 337 337 337 338 340 341 343 345 345 345 346 347 348 348 346 344 344 344 345 344 343 341 343 345 344 344 345 345 344 342 337 332 333 338 342 342 341 340 339 337 336 336 335 335 335 334 333 333 333 332 332 332 332 331 330 331 331 331 332 332 333 332 331 330 329 329 330 330 331
323 323 321 321 320 321 321 322 323 322 322 324 325 325 326 325 325 324 322 321 327 329 330 330 331 333 336 340 341 341 341 341 342 342 342 342 343 343 343 343 343 343 342 342 342 342 342 340 337 334 335 339 341 341 342 343 345 345 342 339 337 339 340 342 342 341 340 338 336 336 335 335 334 334 334 333 333 332 332 332 331 330 330 330 331 331 332 332 333 333 331 330 329 328 330 331 330
323 324 322 321 321 321 322 323 322 321 322 324 326 324 324 325 324 323 324 324 327 330 331 331 333 336 339 342 342 341 340 340 340 340 339 338 339 340 341 342 342 342 342 341 340 340 340 338 338 336 333 335 338 338 337 338 342 342 341 340 341 342 341 340 341 342 340 339 337 336 335 334 334 334 334 333 333 333 332 331 331 330 330 330 330 329 330 331 332 332 331 331 330 328 330 331 331
323 324 322 320 321 319 319 321 321 322 321 323 325 323 325 326 324 325 328 328 330 331 332 334 336 339 341 342 340 337 334 333 332 330 329 329 330 331 333 336 339 340 341 340 339 338 338 337 338 338 336 337 338 338 337 337 338 338 335 333 335 339 341 340 340 341 340 339 337 336 336 335 335 335 335 334 334 334 333 332 331 331 330 329 328 327 327 329 331 332 332 331 331 329 330 330 330
324 324 321 319 321 320 319 320 322 324 323 324 324 323 326 327 325 327 330 330 331 332 333 336 339 341 341 339 336 332 330 329 328 328 328 328 328 328 329 330 332 336 338 337 336 336 337 337 337 337 338 338 339 339 339 337 337 337 334 330 330 333 338 340 339 339 338 339 339 339 338 337 336 336 335 334 335 334 333 332 332 332 330 329 327 325 326 328 331 332 332 331 330 329 329 330 330
324 325 323 320 322 321 321 322 321 323 324 325 324 322 325 327 325 328 329 329 330 330 332 335 340 342 339 336 333 332 331 331 331 331 331 331 331 331 332 332 331 333 334 333 333 334 335 336 336 337 337 338 339 339 339 339 338 337 334 333 334 336 339 340 340 339 338 338 338 337 337 337 337 337 336 336 335 335 334 332 333 333 331 330 328 327 327 328 331 331 331 332 331 328 328 329 329
322 324 323 322 322 321 321 320 319 321 321 323 324 322 323 324 324 328 330 328 329 329 331 334 337 339 337 335 334 331 330 329 328 329 329 329 331 332 333 334 334 332 331 329 330 332 331 330 331 333 335 337 337 338 338 338 338 337 335 334 336 338 340 340 339 339 338 337 336 331 330 335 338 338 337 336 335 335 335 334 333 333 332 331 330 330 329 329 330 331 330 331 331 329 328 328 328
321 322 322 322 321 320 320 320 319 320 321 322 324 322 321 323 326 331 330 328 329 330 332 334 336 337 334 332 329 326 325 323 323 323 323 325 328 331 331 332 333 330 328 327 327 330 329 327 325 327 330 333 335 336 337 337 336 337 337 337 338 337 335 335 335 336 337 338 337 331 327 329 334 336 336 337 337 336 336 334 333 332 333 333 332 331 331 331 331 331 330 330 332 331 329 327 328
321 321 322 320 320 319 320 321 319 320 322 321 323 322 321 322 327 335 331 327 328 329 329 331 332 332 329 325 323 321 321 320 319 319 319 321 323 326 326 327 328 326 324 323 323 324 327 327 326 325 325 327 331 333 335 337 336 336 336 337 337 337 334 331 330 331 334 336 336 334 331 329 330 333 334 334 336 337 336 335 333 333 333 333 333 332 332 331 331 330 330 329 330 330 329 328 328
320 319 320 319 319 321 321 320 320 324 325 322 321 320 321 324 330 338 335 327 327 326 324 323 323 323 322 320 319 319 319 318 317 316 315 316 317 318 319 319 319 318 318 318 317 316 318 320 321 322 322 322 324 327 330 333 335 336 336 336 335 335 335 332 329 328 330 331 332 332 333 333 333 335 334 333 335 336 336 336 335 334 333 333 333 333 331 331 331 331 330 329 329 329 329 329 328
320 320 321 321 322 327 331 330 328 326 323 322 319 316 324 330 331 334 332 327 326 324 322 321 320 320 318 318 318 317 316 315 314 314 313 312 312 311 311 311 311 311 311 312 312 312 312 312 313 315 316 316 317 319 322 326 329 331 333 334 335 335 335 334 332 331 331 329 329 329 331 333 334 334 334 335 335 333 333 335 335 335 334 334 334 333 332 331 331 331 330 330 330 330 331 330 329
319 321 320 319 323 332 338 339 334 326 322 324 320 315 325 334 331 327 324 324 324 322 321 321 319 318 317 316 315 315 314 313 313 312 312 311 310 309 309 309 309 309 310 310 310 310 310 310 310 311 311 312 311 312 314 318 321 323 325 328 331 333 335 335 334 334 334 333 331 330 330 333 334 334 335 335 334 332 331 331 334 336 335 335 334 334 333 333 332 332 331 331 331 331 331 331 330
320 322 323 322 327 332 334 335 333 329 327 325 320 316 323 330 329 324 322 320 321 321 320 319 318 316 316 314 314 313 313 312 311 311 310 309 309 308 308 308 309 310 310 309 309 308 308 308 308 308 308 309 309 309 311 313 316 318 320 321 323 326 330 332 334 335 335 335 335 333 332 334 335 335 336 336 333 332 332 331 332 333 334 335 335 335 334 333 333 333 332 331 331 330 329 329 329
319 321 324 323 326 327 328 332 328 325 325 322 320 318 319 328 327 322 321 319 318 318 317 317 316 315 314 313 312 312 312 311 310 310 309 309 308 308 308 309 310 310 309 309 309 308 307 306 306 306 306 307 307 308 309 311 312 313 315 319 321 322 324 327 330 332 333 335 335 335 335 335 335 335 335 335 334 333 333 333 331 330 331 334 335 335 335 335 334 334 333 332 332 330 329 329 329
319 320 321 320 323 323 323 329 325 322 324 322 321 318 320 330 329 320 320 319 316 317 315 315 314 313 313 312 312 311 311 310 310 309 309 308 308 307 307 310 311 310 309 309 308 307 306 305 303 303 304 304 305 307 308 309 310 310 311 314 318 321 324 326 327 330 332 333 334 336 336 335 334 334 335 335 335 335 335 335 333 331 329 330 333 335 335 335 334 334 333 333 332 332 331 331 330
323 321 319 320 327 326 324 329 327 322 324 325 323 319 322 328 325 320 319 318 316 316 314 314 313 313 312 312 311 311 310 310 309 309 308 308 307 306 308 311 311 309 309 308 308 307 306 305 303 302 302 301 302 303 305 306 308 310 311 313 316 319 322 325 326 328 330 332 333 334 335 336 335 334 334 335 334 335 336 335 333 333 330 326 329 334 335 335 335 334 333 333 333 332 332 331 331
324 320 320 322 325 322 321 329 331 322 320 326 325 321 324 325 322 322 320 318 317 316 314 313 312 312 313 312 311 311 310 310 309 308 308 307 307 306 306 309 310 309 309 308 307 306 306 304 303 302 300 300 300 301 302 303 304 306 309 312 315 318 321 323 324 325 327 330 332 333 334 335 336 335 334 334 334 334 334 333 332 335 333 327 325 330 334 335 335 335 334 333 333 332 331 331 331
321 317 319 322 323 324 321 323 329 326 322 327 327 321 325 328 326 324 321 318 318 316 314 314 312 312 312 311 311 310 309 309 308 308 308 307 306 306 305 306 307 307 307 306 306 305 305 304 303 302 300 300 300 300 300 301 301 302 304 307 309 314 318 322 323 324 325 327 329 331 333 333 334 335 335 334 334 334 333 332 333 334 334 330 327 326 330 333 335 335 334 334 334 333 332 331 332
318 318 319 321 321 324 324 320 322 325 322 326 329 324 323 328 328 325 323 320 318 316 315 315 314 312 311 311 311 309 308 308 308 308 307 307 306 306 305 305 305 305 304 304 304 304 304 304 304 303 302 301 300 300 300 300 300 301 301 302 304 306 310 316 321 323 323 324 326 328 330 331 333 334 335 335 335 335 334 332 333 332 332 333 333 330 329 332 334 335 335 334 334 334 333 333 332
317 318 320 325 322 320 323 321 320 322 323 325 328 326 325 328 330 330 327 322 318 318 319 317 314 312 311 311 310 309 308 308 308 308 307 306 306 305 305 305 305 304 304 304 304 304 304 304 304 304 304 303 301 301 301 300 300 300 300 301 301 302 303 306 313 319 322 322 322 324 328 330 331 333 334 335 335 335 334 333 333 331 329 331 334 333 332 333 333 335 335 334 334 334 334 333 333
318 319 319 325 325 322 322 321 319 320 323 326 326 328 333 333 329 330 327 322 320 320 321 318 312 312 312 311 310 309 308 309 308 307 306 306 306 306 305 304 305 304 304 304 304 304 304 304 304 305 305 304 302 302 302 301 301 301 301 301 300 301 301 302 305 311 318 320 319 320 324 328 330 331 332 334 335 336 335 334 334 332 329 329 330 331 333 333 333 334 334 334 334 334 335 334 333
317 318 319 320 322 321 321 324 328 323 320 323 324 327 335 330 322 323 323 319 319 317 316 315 312 311 311 310 309 308 307 308 308 307 306 306 306 306 305 305 305 305 305 305 304 304 304 305 305 305 305 304 304 303 303 303 303 302 301 302 301 300 300 301 301 303 310 316 317 317 319 324 328 330 331 333 335 336 335 335 334 332 331 330 330 332 333 333 334 334 334 334 335 334 334 334 334
Wind_Speed
13 13 13 12 14 15 10 8 2 2 2 1 4 1 4 6 3 3 4 2 1 3 7 12 14 13 8 6 7 8 6 4 6 4 2 5 5 3 3 5 6 6 6 7 11 13 14 16 16 16 14 13 13 13 14 14 14 13 13 12 11 10 9 8 8 7 7 7 5 4 3 3 3 3 4 5 5 5 6 7 8 9 9 10 13 13 12 11 10 10 11 11 11 13 13 12 10
12 12 12 12 13 11 7 6 2 2 3 3 4 2 4 3 3 5 6 4 5 8 13 16 15 14 13 13 12 9 3 2 6 6 5 8 6 6 5 5 6 6 7 8 11 13 14 15 16 15 14 13 13 14 14 14 13 13 12 11 11 10 10 9 9 8 7 7 6 4 3 3 3 3 5 6 6 7 7 8 9 9 9 10 14 14 11 10 10 11 12 12 13 14 13 11 10
12 12 11 10 9 9 7 4 1 1 1 3 5 4 3 2 5 8 9 10 13 18 19 18 15 16 16 10 8 6 1 2 5 6 7 9 7 6 7 7 7 7 8 9 11 13 14 15 16 15 13 14 14 14 14 14 13 12 12 11 11 11 10 10 9 9 8 7 6 5 4 4 4 5 6 7 7 7 7 8 9 10 10 11 14 13 11 10 10 11 13 14 15 13 12 11 10
11 11 10 10 7 6 3 1 2 3 2 3 4 6 4 4 8 8 11 15 18 21 17 15 10 12 14 7 7 5 3 5 4 5 6 7 6 5 7 7 7 10 11 10 11 12 13 15 16 15 13 13 14 14 14 13 13 12 11 11 11 11 10 10 10 9 9 7 6 5 5 4 5 6 7 7 7 6 6 7 9 11 11 10 13 13 11 10 10 11 12 14 14 12 11 11 11
9 10 10 9 5 3 1 0 1 3 5 4 3 5 6 8 9 8 9 17 19 17 16 15 6 7 12 10 11 6 5 8 5 5 4 7 7 6 6 7 8 11 12 10 11 12 13 15 15 15 13 13 13 13 13 12 12 11 11 11 10 10 10 10 9 9 8 7 6 6 5 5 6 7 7 7 7 6 6 7 8 10 10 10 11 13 12 10 11 11 12 14 13 12 11 11 13
8 8 9 8 3 2 1 2 2 3 6 6 3 6 8 10 11 10 8 16 20 17 19 16 11 8 6 8 8 6 8 7 7 8 5 6 8 7 7 6 8 10 11 10 11 12 12 14 15 14 14 13 13 13 13 13 12 11 11 11 11 10 10 9 9 9 8 8 7 6 6 6 7 8 7 6 6 6 6 7 8 10 11 10 10 12 12 10 11 11 12 13 13 12 11 12 14
7 6 6 4 1 2 1 3 5 4 7 6 6 8 7 11 14 9 7 11 12 13 16 16 18 11 3 7 6 5 7 5 6 7 6 7 8 8 7 7 8 9 10 9 11 12 12 14 15 14 14 14 14 14 13 13 12 11 11 11 10 10 9 9 9 9 9 8 7 7 7 7 8 7 6 5 4 5 6 8 9 10 11 10 10 11 12 11 10 10 11 12 13 12 12 13 13
7 6 3 2 1 1 1 4 5 3 7 5 6 10 3 12 17 9 10 10 7 8 11 18 21 9 4 10 7 8 9 7 5 5 7 7 8 9 8 8 9 9 9 9 11 11 12 14 15 15 15 15 15 14 14 13 12 12 11 11 10 10 9 9 9 9 8 8 7 7 7 8 8 7 6 4 4 5 6 8 9 10 10 10 11 12 12 12 11 10 10 11 12 12 12 13 13
7 6 2 1 0 1 3 4 6 4 8 9 8 9 3 4 11 12 10 7 8 9 13 23 18 7 8 10 9 14 13 9 7 5 7 7 8 9 9 9 8 10 9 9 11 11 12 14 16 17 16 16 15 15 15 14 14 12 12 11 10 10 9 9 9 9 8 7 7 7 7 8 8 7 6 4 4 5 7 9 10 10 9 8 10 12 12 13 13 11 10 11 11 11 12 13 13
5 4 1 0 1 2 4 2 5 5 6 9 7 2 9 8 1 10 10 7 11 10 17 24 12 9 12 9 9 14 15 13 11 9 8 8 8 9 10 9 8 10 9 10 13 13 12 14 16 17 17 16 16 15 15 15 15 13 12 11 10 10 9 9 9 8 8 7 7 7 8 8 7 7 6 4 4 6 7 8 9 9 9 8 9 10 12 14 14 12 11 11 11 11 11 12 13
4 2 2 0 3 3 4 3 4 6 5 5 4 5 10 7 4 2 4 8 15 12 18 18 7 13 13 7 10 12 15 14 12 10 9 9 9 10 10 10 10 11 9 10 13 13 13 14 16 17 17 16 16 16 16 16 15 14 12 11 10 10 10 9 9 8 8 7 7 7 9 9 8 7 5 4 4 5 7 8 9 9 8 8 8 9 11 14 14 13 12 11 11 10 11 11 12
2 2 2 0 4 3 4 4 6 7 5 4 5 7 13 10 5 4 5 4 14 12 18 18 12 18 9 3 11 11 15 14 11 11 10 11 11 10 11 11 12 12 10 10 12 13 13 14 15 16 17 17 17 17 17 16 15 14 12 12 11 11 10 9 8 8 8 8 8 8 11 11 9 8 6 4 3 4 6 7 9 9 8 7 7 7 8 13 14 13 12 11 10 10 10 11 11
5 3 3 2 4 3 4 4 6 5 4 5 4 8 15 9 5 5 7 2 12 13 18 21 20 17 5 4 9 14 15 14 13 12 12 12 12 12 12 12 12 13 11 11 11 12 13 14 14 16 17 17 18 18 17 17 15 14 14 13 12 11 10 9 9 9 9 9 8 10 12 12 10 9 7 5 3 3 5 7 9 9 8 7 7 7 9 13 14 12 12 11 11 10 11 10 10
6 5 4 3 2 2 4 4 5 3 2 5 4 10 12 7 11 8 7 4 4 10 20 24 24 15 4 5 7 17 16 14 17 13 14 13 13 14 14 14 13 13 12 12 12 11 12 13 15 16 17 18 19 19 19 18 17 17 16 15 13 12 11 9 9 10 11 10 9 10 12 12 11 10 8 6 5 4 5 7 9 9 9 8 7 8 10 13 13 12 12 11 11 11 11 10 9
8 6 2 2 3 3 1 2 5 3 2 5 7 11 9 10 15 10 7 3 6 2 18 22 23 12 7 11 10 19 18 16 20 14 15 15 15 15 15 16 15 15 13 13 13 12 12 13 16 17 18 19 20 20 20 20 19 19 18 16 15 13 12 10 10 11 12 12 11 10 11 12 12 11 9 8 6 6 6 7 8 9 9 9 8 8 10 13 13 12 12 11 11 11 11 10 9
12 8 1 1 3 3 1 2 3 3 3 6 9 12 9 12 14 11 13 6 10 5 14 18 21 11 13 20 12 17 18 17 20 16 17 17 18 17 16 17 16 16 15 15 15 14 13 13 16 18 19 19 20 21 20 21 21 21 19 18 17 15 14 13 12 13 13 13 13 12 12 13 13 12 11 10 8 7 7 8 8 8 9 9 8 9 10 12 13 13 12 12 12 11 11 10 8
10 5 0 2 2 2 2 1 1 1 5 7 10 13 6 10 17 14 15 10 7 4 8 12 22 13 11 18 12 17 18 18 21 19 20 20 21 20 19 18 18 19 18 17 16 15 15 14 16 17 18 19 20 20 21 22 22 22 21 20 19 17 16 15 14 14 14 15 14 14 13 14 14 14 13 11 10 9 9 8 9 9 9 8 9 10 11 13 13 13 13 13 12 12 11 10 8
4 1 1 4 3 4 4 4 4 1 4 5 8 13 5 6 17 15 11 9 4 8 7 8 16 12 12 16 16 18 17 20 22 22 23 24 25 23 22 21 20 20 20 20 18 17 16 15 16 17 18 18 20 20 21 22 22 23 22 22 20 19 18 16 16 15 15 15 15 15 14 14 15 15 14 13 12 11 10 10 10 10 10 9 9 11 12 13 13 13 14 13 13 13 12 11 9
4 3 1 5 5 5 6 5 5 1 4 5 8 14 9 8 14 10 6 9 5 6 4 7 13 15 18 19 20 19 19 22 23 24 25 26 27 25 25 23 22 21 20 22 20 17 17 15 15 17 18 18 19 20 21 22 23 24 23 23 22 21 19 18 17 16 16 15 16 16 14 14 14 15 15 14 13 12 12 11 11 11 11 10 10 11 12 13 14 14 14 14 14 13 13 12 9
7 5 2 7 6 5 10 11 10 7 7 6 9 12 11 14 14 7 3 8 8 3 6 6 11 18 19 20 23 21 21 23 23 24 25 26 27 25 25 22 20 19 20 21 19 17 17 16 15 17 18 18 19 19 20 22 23 24 24 24 23 22 20 19 18 17 17 16 16 16 14 14 15 16 15 15 15 15 14 12 12 12 12 12 11 11 12 14 15 14 14 14 14 13 13 12 10
4 3 4 8 4 3 12 16 17 17 14 10 10 10 10 15 13 7 5 4 8 3 13 12 15 22 22 23 25 24 24 25 26 26 25 27 27 26 23 19 15 14 17 20 19 17 17 16 15 17 18 18 19 18 19 21 23 25 25 24 23 22 21 19 18 18 18 17 17 16 15 15 16 17 17 17 17 17 15 14 13 13 13 13 13 13 13 14 15 16 15 14 13 13 13 13 11
4 6 12 14 7 5 13 16 16 18 17 12 9 8 10 13 12 14 12 4 8 9 10 16 19 25 24 23 26 27 27 27 28 28 27 27 28 27 24 20 16 15 18 20 20 17 17 16 15 16 19 18 18 18 18 19 22 24 24 24 24 23 22 20 19 19 19 18 18 17 17 17 17 18 18 18 18 17 17 15 14 13 13 12 12 12 13 14 15 16 16 15 14 13 13 13 12
4 7 11 13 11 7 14 17 15 14 13 11 10 12 14 11 12 20 16 10 14 16 9 14 20 23 21 21 26 28 28 28 29 28 26 26 27 27 25 22 19 17 19 20 19 17 17 16 15 16 19 20 19 18 18 19 21 22 23 23 24 24 23 22 21 21 20 19 19 18 18 18 18 18 18 17 17 17 17 16 15 14 13 12 11 10 11 14 15 16 16 16 15 14 13 13 13
5 4 6 12 15 11 18 23 21 20 17 19 19 16 15 10 11 15 13 15 20 20 13 15 21 23 22 22 25 27 27 27 26 25 25 24 24 23 22 20 17 16 18 19 19 18 18 17 16 16 18 20 20 18 18 19 20 20 21 23 24 24 24 23 22 22 21 20 20 20 19 19 19 18 18 17 17 18 17 16 16 15 15 14 12 10 9 11 14 16 16 16 16 15 14 13 13
4 5 11 16 20 20 25 27 26 26 23 27 24 15 18 20 15 12 15 21 22 20 17 17 23 26 26 25 25 27 26 25 25 24 25 24 22 20 20 19 18 17 17 18 19 18 17 17 17 16 17 19 20 20 19 18 18 19 21 22 23 24 24 24 23 22 22 22 21 21 21 20 20 19 18 17 17 17 17 17 17 17 16 15 14 12 10 9 12 16 16 16 17 16 15 14 14
6 10 16 17 21 25 26 25 25 26 24 25 17 12 21 24 13 8 16 21 17 19 19 18 26 29 28 26 26 27 26 25 25 24 23 22 20 20 20 20 19 16 14 16 18 17 17 17 17 16 16 17 19 20 19 18 17 18 20 21 22 23 24 24 23 23 23 23 24 23 22 22 21 20 19 18 18 17 18 18 18 18 17 16 15 13 11 10 11 16 16 15 15 16 16 15 16
14 17 19 19 22 26 24 22 28 26 23 24 13 10 21 20 7 5 15 19 13 15 17 17 28 29 27 28 28 27 26 24 23 22 22 21 20 20 19 20 19 15 13 15 16 16 17 18 16 14 14 16 18 20 19 18 17 17 18 20 22 23 23 24 24 24 24 25 25 25 24 23 22 21 20 19 19 18 18 19 19 18 18 17 16 14 13 11 12 16 15 13 13 14 15 16 17
21 18 17 20 19 23 22 17 23 19 13 21 15 8 17 13 5 7 14 17 13 18 20 12 26 30 27 28 29 29 27 24 23 22 20 19 17 17 17 18 17 14 13 14 14 15 16 18 17 15 14 15 18 20 20 19 18 17 18 19 21 22 23 24 24 24 25 26 26 26 26 25 24 22 21 21 20 19 18 18 19 19 18 18 17 16 14 13 15 16 14 12 12 12 15 16 16
21 14 9 15 14 15 19 12 14 8 5 18 11 3 10 6 6 9 10 14 13 17 23 15 14 22 26 29 29 30 27 24 24 19 16 16 12 12 14 16 16 15 14 14 14 15 16 16 17 17 15 15 17 20 21 20 19 18 18 18 19 21 22 23 24 24 25 26 27 27 26 26 25 24 22 22 22 21 19 19 19 19 18 18 17 17 16 15 17 17 14 12 12 11 13 15 15
15 10 4 10 10 8 16 18 14 3 5 16 6 1 7 6 9 9 7 10 10 10 20 18 7 10 23 30 28 28 26 22 18 13 13 13 10 10 12 14 16 16 14 14 16 17 16 16 17 19 19 17 17 19 22 22 20 19 18 17 18 20 22 23 24 24 25 26 27 27 27 27 26 25 24 23 23 22 21 20 20 20 19 19 19 18 17 17 18 17 13 11 12 12 13 15 15
6 8 4 3 3 5 14 15 9 3 5 9 6 3 6 7 12 11 10 9 9 6 12 8 2 9 19 24 22 23 22 17 12 9 9 9 8 9 11 14 16 17 15 15 15 16 17 16 17 19 20 19 18 18 20 22 21 20 18 17 17 19 21 23 24 25 26 26 27 28 27 27 26 25 25 24 23 23 22 21 21 20 20 20 20 19 18 19 19 17 13 12 12 13 14 15 15
1 2 5 2 1 5 12 12 5 4 7 5 7 1 5 7 12 14 16 13 9 5 2 8 11 15 18 19 20 20 18 13 8 6 8 8 7 8 11 13 14 16 15 14 14 16 19 17 17 19 20 20 19 17 18 21 21 20 19 18 17 18 20 22 24 25 26 27 28 28 28 27 26 26 26 25 24 24 23 22 21 21 21 20 20 20 20 20 21 19 15 13 13 14 15 16 15
2 1 4 4 3 3 8 8 4 6 5 1 3 1 4 6 12 16 18 15 11 9 7 16 18 22 24 24 23 20 16 13 10 8 8 9 7 6 8 10 12 14 13 13 14 16 19 19 17 18 20 20 18 16 15 18 21 20 19 19 18 19 20 21 23 25 26 27 28 29 29 28 28 27 27 26 25 24 23 22 22 21 21 20 20 21 22 21 21 21 19 15 15 16 17 18 17
3 1 3 4 5 3 6 7 9 12 8 5 4 1 5 7 12 18 18 16 17 11 16 21 22 26 28 28 28 24 21 18 14 10 7 8 7 4 5 8 10 11 10 11 13 14 17 18 17 17 18 19 19 17 14 15 19 20 19 19 20 20 20 21 22 24 26 27 29 30 30 30 29 29 29 27 26 24 23 23 22 22 22 21 21 22 22 22 21 22 22 19 17 18 19 18 16
3 5 4 4 5 4 6 6 7 10 6 5 6 3 7 9 10 16 21 23 18 11 22 25 26 30 31 31 30 27 26 24 20 16 11 8 6 5 5 6 6 6 7 9 12 13 16 18 18 18 18 18 19 19 18 17 18 20 20 20 21 22 22 22 23 24 25 26 28 29 30 31 30 30 30 29 27 25 25 24 23 22 22 22 22 23 23 24 23 23 24 22 20 20 19 16 14
6 7 4 4 6 6 8 7 5 6 5 4 6 5 8 10 10 12 22 23 13 23 25 24 26 29 31 31 31 29 30 28 24 20 18 14 11 9 7 6 3 3 5 6 9 11 14 16 18 19 19 19 18 17 19 21 22 22 22 21 22 24 24 24 24 24 25 26 27 28 30 31 31 31 31 30 28 27 27 26 24 23 23 23 23 24 25 25 24 24 24 24 22 21 20 16 15
7 5 4 5 5 6 8 7 7 6 4 4 5 6 7 10 11 10 19 19 13 25 22 22 25 27 29 30 30 30 31 30 27 27 26 23 20 17 14 13 10 7 8 11 13 13 12 11 13 15 16 17 16 15 18 21 24 25 25 24 23 24 24 25 26 26 25 26 27 28 30 31 31 32 31 31 30 30 29 27 25 24 24 25 25 25 25 25 24 24 25 25 23 22 20 18 17
1 3 5 6 5 6 8 6 8 7 4 6 5 7 9 10 11 12 16 11 10 21 22 23 25 27 29 31 32 32 33 32 32 33 33 31 29 26 23 22 20 21 21 21 20 17 14 11 10 11 12 15 15 14 16 19 21 22 24 25 24 24 25 26 26 26 25 26 27 28 29 30 32 32 32 32 31 31 31 29 27 25 25 25 26 26 25 25 26 25 26 27 26 24 21 19 19
4 4 5 5 4 6 8 7 9 6 2 6 6 6 8 10 8 11 13 7 14 22 27 27 28 29 28 31 33 33 34 34 35 35 35 34 32 29 28 27 26 27 27 26 25 20 18 15 10 10 10 13 15 15 16 18 19 18 19 23 25 25 27 27 27 27 26 26 27 29 30 30 31 32 32 32 32 31 31 29 27 26 26 26 26 26 26 26 27 27 28 29 28 26 23 21 21
4 3 4 3 4 4 5 8 10 8 2 3 5 7 6 7 7 11 14 19 21 25 29 28 29 30 29 31 33 35 35 35 36 37 37 37 36 34 32 30 29 29 29 30 29 26 25 21 15 12 11 12 15 15 15 17 19 20 19 22 25 26 27 29 28 27 26 26 26 28 30 31 31 32 33 33 32 32 31 29 27 26 26 26 26 26 26 26 27 27 30 31 29 28 26 24 23
3 2 3 3 5 4 5 6 8 8 4 0 5 8 6 5 9 8 11 19 21 22 26 28 30 32 34 35 35 36 37 37 38 38 38 39 40 39 38 36 33 33 33 33 32 31 29 26 21 17 14 11 13 15 15 15 17 18 19 20 23 25 27 28 29 28 27 27 27 28 31 31 32 33 33 34 33 31 31 29 27 26 27 27 27 26 26 26 26 26 28 31 30 29 28 27 25
5 2 2 4 5 6 7 7 6 6 6 3 7 5 6 5 10 7 5 10 12 15 19 23 27 30 33 34 32 34 34 35 35 35 36 37 38 39 40 39 38 37 36 34 33 33 31 28 25 22 18 12 9 12 15 17 17 17 19 20 22 24 26 26 26 25 25 27 27 29 32 33 32 33 34 34 33 32 31 30 28 27 27 27 27 26 25 26 26 27 28 30 31 30 30 29 28
2 4 4 4 5 6 9 8 5 2 4 4 6 4 5 6 8 5 4 7 10 12 12 16 23 27 28 28 28 30 31 32 34 35 36 36 36 38 39 39 38 36 34 33 32 32 31 30 28 24 20 16 12 9 10 13 16 17 19 23 24 25 26 27 25 24 25 27 27 28 31 33 32 33 34 33 32 32 32 31 30 28 28 28 28 27 26 26 28 28 28 30 31 31 31 31 30
1 6 4 6 7 7 8 7 3 2 3 4 4 4 3 3 5 5 4 8 12 12 12 14 21 25 26 27 28 30 31 32 36 37 37 38 38 38 38 37 35 33 32 32 31 31 30 29 29 26 22 18 16 14 11 9 11 15 19 23 25 24 25 27 28 27 27 27 28 30 32 31 30 30 32 33 33 33 33 32 31 30 29 29 29 28 27 26 27 29 29 30 31 31 31 32 31
3 6 4 6 6 6 6 5 5 1 3 5 6 2 3 1 2 6 5 9 12 11 12 12 16 22 25 26 28 29 31 34 36 38 37 37 38 37 37 35 34 33 33 33 32 32 31 29 28 27 26 23 20 17 14 11 10 11 13 17 20 23 22 21 23 27 29 29 30 33 34 33 31 28 28 31 32 33 33 33 33 32 31 30 30 30 29 27 27 28 29 30 31 32 31 30 30
4 5 7 7 6 5 4 3 3 3 6 1 8 3 4 1 3 5 3 7 9 8 10 11 17 24 24 25 26 27 30 33 35 35 34 33 32 31 30 30 30 29 28 28 28 29 30 30 29 28 28 27 26 23 19 15 13 11 11 12 15 20 21 19 18 20 25 30 32 34 36 35 33 30 29 28 28 30 32 34 35 34 32 31 30 30 30 29 28 28 29 29 30 31 32 31 30
2 6 8 6 6 5 3 2 2 4 2 4 7 4 5 2 3 3 2 3 6 7 8 9 15 21 22 23 25 26 28 30 31 31 31 31 30 28 28 28 28 27 25 24 23 23 24 26 27 27 27 26 26 26 25 23 19 17 14 11 13 16 19 21 23 23 23 26 31 33 35 35 34 33 32 29 26 27 29 32 35 36 35 33 32 31 31 30 29 29 28 28 29 30 32 32 32
6 5 5 4 5 5 5 5 4 4 2 6 6 5 6 3 1 2 4 6 6 7 8 8 10 16 20 21 22 24 26 27 28 28 28 29 29 29 29 30 29 28 27 25 24 22 22 21 22 23 24 24 24 24 24 24 24 23 21 17 15 15 16 19 22 26 28 29 31 33 35 36 36 36 34 31 28 26 27 30 32 35 37 37 34 32 32 31 30 30 29 29 29 30 30 31 32
7 4 5 5 3 5 4 4 3 0 4 5 5 6 3 2 2 5 5 6 6 7 10 11 12 15 18 19 20 22 24 25 27 27 27 28 28 28 28 28 27 25 24 24 24 24 24 23 21 19 19 21 22 22 22 21 22 22 23 22 20 17 17 18 19 21 24 28 32 34 36 37 37 36 36 34 31 27 26 28 29 31 35 38 37 34 32 32 32 31 30 30 30 30 29 30 31
5 2 4 3 1 3 2 4 2 2 5 5 5 4 0 1 2 4 5 6 7 10 14 15 16 17 17 18 20 22 23 24 25 24 25 25 25 25 25 23 22 21 22 22 23 24 25 25 23 19 16 15 17 19 20 20 20 20 21 22 22 20 19 19 20 20 21 23 27 33 36 37 37 37 37 36 33 30 27 26 26 27 30 34 38 38 35 33 33 33 31 31 31 30 29 28 29
3 3 6 3 3 3 2 3 2 3 5 6 7 4 1 4 2 3 5 7 9 12 14 16 17 17 17 19 20 22 22 22 22 21 21 21 21 22 21 18 18 19 21 22 23 24 26 27 27 24 19 16 14 15 17 18 18 19 20 21 21 21 20 19 18 19 20 20 23 28 33 36 37 37 36 35 34 33 31 28 26 26 26 28 34 38 38 35 34 34 32 31 31 31 29 28 29
3 1 4 1 4 4 2 3 5 4 1 4 4 2 1 2 4 4 6 7 8 10 12 14 15 15 17 19 19 20 20 20 19 19 19 19 19 20 18 15 15 17 18 19 21 24 26 28 29 28 25 21 17 16 18 19 19 19 19 20 20 21 20 19 18 18 18 19 20 24 29 34 37 37 35 33 33 34 33 31 28 26 24 25 29 34 37 36 35 34 33 31 31 31 31 30 29
2 3 2 4 4 6 3 3 2 2 1 3 2 1 2 2 2 3 4 4 4 5 8 11 12 14 17 17 17 18 18 18 18 16 17 17 17 19 18 15 14 15 17 18 21 23 25 27 29 28 27 26 24 20 19 21 22 22 21 21 21 22 21 20 18 18 18 18 19 22 26 31 35 36 35 34 33 33 33 33 32 28 24 25 26 28 32 35 37 36 34 32 31 30 31 31 30
2 3 5 4 1 3 3 0 3 3 0 3 3 2 5 4 3 3 4 3 3 2 3 6 8 11 14 14 14 16 18 17 16 14 15 16 16 17 16 15 14 16 18 20 21 23 23 25 27 27 27 28 27 25 22 21 23 24 25 24 24 25 25 24 21 19 19 20 21 22 24 28 33 35 35 34 33 32 32 34 34 30 26 26 26 25 27 32 36 37 35 34 31 29 29 30 30
3 3 5 1 2 2 2 1 0 1 1 3 5 4 4 5 4 5 6 5 5 3 2 2 3 7 10 11 11 12 14 13 10 10 11 11 13 14 14 13 14 16 20 22 23 24 24 25 27 29 30 29 27 27 26 23 23 24 26 26 26 27 28 28 27 24 21 20 22 23 24 27 31 34 35 34 33 33 33 34 34 31 28 27 28 25 24 26 32 36 37 36 33 31 30 29 29
3 4 5 2 2 3 1 1 3 2 2 3 4 5 3 4 5 6 7 7 7 6 4 4 4 6 7 5 4 4 8 6 4 6 8 10 13 14 14 15 15 17 19 23 25 26 27 28 29 30 32 31 28 28 28 26 25 25 26 27 27 28 28 29 30 29 27 25 24 24 24 26 29 32 34 33 33 34 34 34 35 32 29 27 27 26 25 25 29 33 36 36 34 32 31 29 28
4 5 5 5 2 0 0 1 2 3 2 3 2 3 5 4 3 6 7 6 7 7 4 5 6 5 3 2 2 3 8 4 1 4 8 11 14 14 14 15 15 15 17 20 24 26 27 28 27 28 31 31 30 30 31 30 29 27 28 30 30 30 29 29 31 31 31 31 29 26 25 25 28 30 32 32 33 35 34 34 36 35 30 27 26 25 24 25 29 31 33 34 33 32 32 30 29
4 3 3 4 4 2 2 3 3 1 2 3 3 3 6 5 2 5 6 6 6 6 6 7 7 5 3 2 2 8 11 4 2 5 9 12 13 12 11 12 12 15 18 19 20 21 22 23 24 26 29 31 32 34 34 35 34 31 30 31 33 34 32 31 31 32 33 34 34 32 28 26 27 29 30 33 35 35 35 36 37 36 32 29 28 27 24 25 28 31 33 33 33 32 32 31 30
Wind_Direction
310 307 302 301 309 311 327 11 28 292 43 307 284 250 248 219 206 265 262 261 291 254 133 128 133 123 113 126 131 130 125 134 167 147 175 188 142 175 179 159 175 175 177 182 183 181 183 182 183 184 181 181 179 176 172 170 168 171 173 175 177 178 181 181 184 187 195 200 199 186 144 122 122 133 125 111 106 110 111 115 133 139 137 137 133 133 136 139 141 145 146 145 139 132 129 129 129
307 299 298 302 318 326 331 18 26 301 29 309 281 197 255 247 191 241 239 213 191 168 130 120 120 114 107 119 125 116 83 75 171 169 154 165 167 189 183 174 174 175 183 184 181 176 181 182 183 184 180 181 177 175 172 170 170 172 173 174 176 175 177 179 182 185 195 200 195 176 145 142 147 144 129 116 115 120 115 116 129 130 130 137 135 133 136 138 140 145 145 143 137 132 130 129 126
302 294 295 302 327 338 331 11 115 260 22 276 277 244 267 292 223 228 232 223 175 144 124 120 121 121 117 115 127 118 138 143 154 165 159 165 173 181 176 180 168 166 177 179 180 175 178 181 181 182 180 181 177 175 173 172 172 172 174 174 176 174 173 175 178 182 191 196 187 166 153 155 153 144 130 122 123 127 122 121 134 135 133 138 135 132 136 139 142 148 146 143 139 135 133 129 128
296 291 291 304 329 337 350 53 166 168 225 239 268 264 241 232 236 236 234 220 167 141 133 128 125 139 136 136 148 121 165 172 156 160 161 158 157 172 170 177 172 166 169 169 176 174 177 180 179 180 181 183 180 177 174 174 174 173 174 174 174 172 171 172 175 181 188 189 178 162 160 160 152 144 133 128 130 132 132 129 135 138 138 140 138 138 142 145 147 152 149 146 143 139 137 134 136
291 289 290 302 330 349 44 240 191 162 221 201 231 264 229 221 230 248 236 208 180 153 143 133 127 150 137 140 152 140 164 169 167 171 158 154 159 176 174 172 169 167 169 165 170 171 175 181 179 178 182 185 184 180 178 177 175 174 175 175 173 170 169 170 172 178 183 181 169 163 166 165 154 147 138 133 137 140 145 144 142 142 143 148 147 145 148 152 153 157 155 150 147 144 142 141 145
286 292 302 301 283 289 326 264 251 239 238 178 212 259 217 220 219 230 230 205 200 172 146 136 140 142 119 140 165 158 152 156 164 169 161 166 169 173 184 172 160 167 171 166 168 172 174 181 181 179 183 187 187 184 182 181 179 177 176 174 172 170 168 170 171 173 177 173 166 166 171 169 158 151 144 137 141 149 157 157 155 152 148 154 154 148 154 161 161 162 159 154 153 150 147 149 152
281 294 325 328 256 241 203 249 246 255 257 182 204 256 208 213 216 202 180 187 205 179 147 141 143 132 111 149 168 166 155 168 157 153 156 173 177 173 185 173 161 165 170 167 168 175 177 182 184 184 188 191 192 191 189 186 183 180 177 175 174 172 171 171 171 172 173 169 168 173 175 168 160 156 150 139 140 152 164 165 164 164 156 157 160 155 157 164 170 167 164 160 155 155 152 154 156
280 291 341 42 32 260 188 255 250 213 255 233 212 252 188 189 205 172 153 161 183 189 147 151 151 128 153 154 151 175 183 190 155 148 167 177 184 178 182 177 167 165 170 166 166 177 181 185 189 190 192 195 197 196 194 190 186 183 180 179 178 174 173 174 173 174 172 171 177 182 177 167 163 162 154 141 142 154 167 170 167 170 166 160 162 162 158 164 175 175 173 169 159 158 155 156 158
282 289 316 46 20 288 259 266 270 231 248 267 243 246 35 132 184 152 160 164 168 180 155 160 160 138 162 152 148 177 194 193 174 185 183 185 190 183 183 182 173 168 173 165 169 182 185 189 192 194 197 198 199 198 195 191 188 186 183 181 179 175 175 177 177 176 174 178 184 184 177 171 172 167 157 145 146 159 168 172 169 168 169 166 168 167 166 168 174 180 181 175 165 160 156 158 160
297 276 253 49 219 285 279 265 269 268 250 256 253 214 47 24 112 143 159 170 175 166 161 168 167 159 158 146 156 182 199 194 186 194 187 187 194 192 187 185 179 177 179 167 173 185 187 191 194 197 199 200 200 199 197 192 190 188 185 183 181 179 178 180 178 175 177 182 185 182 176 175 181 176 163 150 151 162 166 171 168 163 164 171 180 176 177 178 175 180 184 177 169 163 160 163 165
307 240 197 37 291 301 278 289 281 281 266 262 312 22 48 30 2 84 115 147 173 163 163 173 175 160 144 148 176 188 201 197 186 182 183 185 189 193 192 186 182 189 191 173 177 189 192 193 194 198 199 202 202 200 200 196 193 190 188 187 185 185 182 182 178 173 178 182 185 180 176 179 188 188 173 158 157 159 160 165 163 157 156 164 184 188 185 183 176 177 183 177 171 168 167 169 170
276 189 158 248 275 269 239 280 287 281 293 354 338 337 20 39 35 358 343 101 156 167 172 177 175 159 129 156 191 196 201 203 190 176 178 180 182 187 193 190 186 194 198 187 189 198 200 197 196 198 199 202 203 202 202 200 199 196 193 194 192 189 185 183 177 173 179 182 185 180 177 183 191 194 184 171 163 158 159 163 161 154 152 155 170 183 184 179 174 175 179 177 174 173 174 175 175
221 169 134 229 230 233 261 294 281 293 334 345 310 331 14 29 13 360 311 357 139 168 185 182 169 155 129 154 195 202 194 199 195 184 177 172 176 181 190 194 194 197 200 202 202 205 205 205 203 201 200 201 204 204 205 204 203 201 199 200 199 194 190 186 179 175 180 184 186 183 181 186 193 194 190 182 168 167 168 166 164 156 152 155 160 166 175 177 176 177 178 178 178 178 178 179 179
226 195 162 225 236 254 298 326 294 359 360 289 329 353 18 13 342 352 313 313 139 178 189 187 166 148 137 146 209 205 188 194 196 191 178 169 176 180 189 195 202 203 205 210 210 214 213 214 213 209 204 202 205 206 207 206 204 205 204 204 204 200 196 190 184 179 184 188 187 186 186 188 195 197 194 189 175 174 179 171 171 164 157 159 162 163 171 178 178 179 179 180 179 179 182 182 181
259 248 196 249 321 332 302 278 288 14 336 294 4 1 12 358 342 335 319 309 326 257 173 180 169 155 173 170 205 196 181 190 193 192 181 173 178 181 190 195 205 209 211 214 214 219 222 224 217 212 209 206 208 208 208 207 207 208 205 206 207 205 200 196 190 187 189 191 189 186 187 189 195 199 194 192 185 181 187 184 180 173 169 166 168 169 172 178 178 179 179 178 178 180 183 184 180
269 269 343 314 317 341 316 201 304 13 299 303 1 7 10 345 341 332 321 308 325 342 156 175 181 182 183 179 183 173 173 188 190 190 183 177 180 183 191 198 208 214 219 219 217 218 222 226 215 211 213 212 212 211 211 210 210 210 208 208 209 207 204 200 195 193 194 195 194 188 187 188 193 199 196 193 191 192 196 195 190 179 177 175 175 179 179 179 178 179 180 178 178 183 185 183 179
280 265 296 291 281 286 272 226 336 18 275 300 356 6 14 329 328 318 309 301 329 66 142 182 195 205 186 181 170 159 171 185 188 189 184 183 184 185 190 200 211 217 223 222 222 220 220 221 213 213 215 216 216 215 213 212 214 213 212 212 212 211 207 205 201 198 199 199 198 191 190 190 192 198 199 196 193 198 203 199 195 185 181 182 182 186 185 185 181 179 181 181 181 184 186 183 178
291 203 218 258 230 221 227 214 225 192 280 292 353 347 341 317 314 308 308 301 346 91 114 160 187 200 177 178 170 164 173 181 189 191 186 186 187 188 191 201 212 219 224 222 224 223 222 220 214 216 217 219 219 218 216 214 216 216 217 216 216 215 211 211 207 204 205 207 205 199 198 195 195 198 199 202 199 201 207 204 198 191 187 185 185 189 190 189 187 184 185 185 185 187 188 186 181
275 184 233 251 212 224 240 239 250 291 286 281 341 332 320 304 298 305 317 292 311 77 89 121 148 169 171 176 172 171 178 182 192 194 192 191 190 191 193 200 211 219 225 224 223 223 226 223 219 219 217 219 219 219 219 217 219 221 222 220 220 219 216 215 211 210 210 213 214 210 207 202 202 201 201 204 204 204 208 207 201 196 193 188 187 192 194 193 192 191 190 189 189 191 190 188 184
262 214 233 252 221 241 276 288 294 296 288 299 326 315 301 299 298 298 272 287 309 107 132 125 149 170 175 177 177 180 184 187 195 197 197 196 193 193 194 200 209 219 224 226 226 226 229 226 224 222 220 220 219 219 219 220 222 225 227 226 226 224 221 218 216 216 214 216 219 217 214 209 207 204 203 205 205 206 209 208 201 197 196 194 194 195 196 196 198 197 196 196 194 194 193 190 188
248 206 215 249 248 283 287 297 306 304 304 308 303 298 297 302 306 295 275 311 314 205 160 172 181 176 177 180 184 188 187 191 198 199 199 197 195 194 197 203 210 221 222 225 229 227 231 230 226 222 224 222 219 220 220 222 224 228 231 230 230 229 227 224 222 222 219 220 221 221 219 215 212 207 206 206 207 208 209 210 206 201 198 199 200 198 199 200 202 202 202 203 201 199 197 196 195
271 253 241 252 268 282 288 300 312 308 305 305 296 294 300 306 310 297 292 261 274 271 188 193 194 179 179 186 189 191 191 197 200 201 200 198 197 195 196 200 203 213 217 221 225 223 226 230 227 223 227 227 223 222 222 225 228 232 234 233 233 232 232 230 228 227 224 224 224 224 224 221 216 212 211 211 212 209 208 211 210 208 204 204 204 201 204 206 207 205 206 207 207 206 202 202 203
271 267 259 269 276 276 301 312 319 312 304 301 295 294 300 308 304 294 283 246 263 281 244 211 206 188 187 190 189 193 196 201 203 203 201 199 200 197 196 197 197 204 210 216 220 218 219 223 225 224 228 230 228 224 221 224 230 236 238 236 236 237 237 234 232 231 229 229 227 226 229 228 222 218 217 214 214 211 209 212 213 215 214 212 209 203 203 209 212 209 208 209 210 211 207 207 208
281 278 315 320 312 310 318 318 314 311 305 300 299 298 297 290 291 292 274 265 279 283 266 232 214 194 192 196 194 197 199 202 206 206 204 202 204 203 199 200 199 200 205 210 216 218 216 218 220 224 228 229 230 227 221 222 227 236 240 240 240 242 243 241 238 235 234 233 231 231 233 234 230 226 224 219 216 214 212 214 216 219 219 219 217 210 199 205 214 212 210 209 211 213 211 210 211
320 313 326 328 321 319 318 314 308 307 305 302 302 293 283 280 281 282 272 279 287 284 271 234 207 194 195 201 201 200 200 203 206 206 206 205 207 207 205 205 202 202 207 205 211 218 217 219 221 223 228 229 231 230 227 225 227 233 238 241 243 246 248 248 246 242 240 238 237 237 237 238 237 233 230 225 221 219 217 216 218 220 220 222 223 218 207 208 214 211 208 207 209 212 211 210 211
331 328 324 321 316 315 314 308 301 298 296 294 294 285 281 284 285 272 274 284 291 284 267 221 196 196 200 207 208 202 201 203 204 205 205 206 208 209 208 208 207 209 213 205 210 220 219 220 222 224 230 233 233 232 232 230 231 235 237 240 243 248 251 252 251 248 246 245 244 244 243 242 242 239 236 232 227 224 222 220 220 221 220 222 225 222 216 219 215 206 204 203 205 208 208 209 211
320 324 321 313 308 308 303 295 289 286 285 278 264 261 274 279 284 259 280 289 286 272 259 211 192 201 207 210 211 203 202 203 202 203 203 205 207 209 211 211 215 219 220 213 214 223 225 226 226 227 231 237 239 238 237 234 234 238 240 242 243 248 253 252 252 251 250 249 249 249 248 247 246 243 240 238 234 229 226 225 223 222 222 223 225 223 217 218 210 199 197 195 195 199 202 209 214
318 322 321 308 306 305 293 276 277 277 274 267 246 247 275 278 254 241 291 307 288 270 271 224 191 206 216 214 212 204 201 202 200 201 201 203 205 209 215 216 219 224 227 228 222 224 232 235 236 237 237 241 245 245 243 240 238 239 242 245 245 248 253 253 251 250 251 251 251 250 251 251 250 247 243 242 240 234 231 229 227 227 226 224 225 224 219 216 207 197 194 191 186 189 198 204 210
314 322 328 307 316 315 303 305 296 283 248 263 250 292 296 276 234 245 301 319 303 281 275 261 205 207 216 216 213 203 200 200 198 201 203 204 205 211 221 222 223 226 232 236 230 228 236 243 246 246 247 248 251 253 251 247 244 243 244 247 248 249 253 255 254 252 252 252 251 249 250 252 252 250 247 244 241 237 234 233 233 233 230 226 226 227 222 217 209 202 199 197 192 193 199 200 202
316 325 334 307 331 327 310 326 329 327 234 260 233 187 289 271 269 276 296 311 333 294 265 274 277 201 206 211 207 198 196 197 195 199 205 205 208 218 226 227 226 230 234 233 230 231 236 245 250 249 250 253 256 257 255 252 248 247 246 247 249 250 252 256 257 256 255 253 252 251 252 252 252 251 249 246 242 238 235 235 236 237 234 228 227 227 222 216 211 206 203 205 203 206 209 204 200
319 322 318 306 340 301 295 305 319 356 258 244 163 172 274 275 290 310 310 320 12 312 262 278 275 167 184 194 188 184 188 189 187 192 200 202 210 219 223 225 227 230 234 235 234 235 238 247 252 250 250 253 257 258 257 255 252 252 252 250 250 252 254 256 259 259 258 257 255 255 255 253 252 250 249 247 244 241 238 237 238 237 234 231 228 225 222 218 213 208 205 211 213 215 218 208 203
338 325 306 314 180 264 287 283 275 310 279 203 133 232 275 269 292 317 315 318 9 342 238 129 132 135 141 152 156 163 169 171 167 169 187 195 206 214 218 223 225 230 237 240 238 235 239 249 255 254 251 251 256 260 260 257 254 255 257 257 255 255 256 258 261 262 262 261 260 259 257 254 253 251 250 248 245 242 241 241 240 237 234 232 229 225 223 220 215 211 207 214 219 221 222 216 215
352 152 258 278 247 263 299 299 317 333 324 59 75 311 293 292 298 316 322 317 335 359 90 118 112 111 118 122 126 131 131 131 130 143 175 188 199 204 207 216 220 227 237 243 244 241 242 248 256 259 256 255 257 262 264 259 255 256 259 262 260 258 258 260 262 263 264 265 264 262 260 259 256 253 252 251 248 245 245 245 242 238 234 233 230 226 224 221 217 216 212 215 222 221 222 221 220
315 283 251 257 256 283 310 318 345 356 22 30 3 275 273 285 288 308 329 332 330 8 89 105 99 101 106 105 107 106 104 104 101 110 146 178 194 183 172 198 210 223 237 247 250 250 250 251 257 264 263 260 259 263 269 263 257 256 258 262 263 261 261 261 261 262 265 267 266 264 263 262 259 256 255 253 251 249 249 246 241 238 235 233 231 225 223 221 219 219 215 215 221 221 220 220 221
252 279 291 293 297 312 311 312 341 355 19 23 9 332 289 291 294 313 328 335 347 56 100 102 97 99 100 99 99 94 90 86 82 86 95 121 149 138 137 159 184 216 235 243 248 254 257 254 254 259 261 259 258 263 269 265 259 256 255 259 263 263 261 260 260 259 262 264 265 265 264 263 261 259 257 255 253 253 252 246 240 237 235 234 232 227 222 221 220 219 214 213 219 222 219 219 227
234 262 281 323 324 314 316 322 325 347 1 354 352 318 303 309 312 322 320 330 39 98 104 97 96 97 97 97 93 87 81 76 75 76 76 88 102 109 113 100 105 213 239 267 278 276 269 256 251 253 252 251 254 264 271 270 265 261 257 257 260 263 263 262 262 261 261 261 262 263 263 263 262 261 258 257 256 255 255 249 241 238 237 234 232 230 225 223 221 218 215 213 217 222 222 221 227
245 283 329 350 348 321 324 325 312 344 2 305 314 314 319 321 314 314 315 329 72 108 105 98 96 92 91 89 85 82 78 73 73 71 69 73 74 76 74 63 55 43 26 9 353 335 317 296 281 277 267 259 259 265 272 276 276 273 269 267 266 267 269 268 267 267 265 263 263 262 261 262 262 261 258 256 256 257 256 251 245 240 238 234 231 231 228 225 223 220 218 216 216 221 224 224 224
259 11 13 7 10 322 316 312 305 336 351 294 322 347 329 314 309 314 319 332 111 124 117 110 103 95 91 86 82 82 79 74 72 70 68 68 66 65 62 59 56 48 41 34 26 12 2 359 336 324 305 283 275 273 275 276 277 279 281 283 283 281 280 279 277 276 275 271 269 266 264 261 259 259 257 255 255 257 257 253 249 243 239 236 232 231 228 226 225 222 220 218 218 220 222 224 224
41 37 41 4 347 322 313 317 316 330 340 292 321 357 314 294 314 343 354 44 113 116 113 112 108 101 93 87 84 81 77 72 69 67 66 65 64 63 60 59 57 51 46 43 41 34 24 23 11 356 334 298 282 282 286 280 276 284 292 291 290 289 289 287 284 281 280 278 275 272 268 263 259 257 255 254 254 255 256 255 253 247 242 239 236 232 229 226 226 224 222 221 222 221 219 221 222
33 55 68 330 317 340 314 314 320 321 285 246 325 353 310 305 3 23 43 74 89 94 100 101 99 96 90 86 83 78 74 70 67 66 64 62 61 60 58 58 58 56 53 49 45 41 35 34 29 15 351 313 288 283 288 288 285 290 294 290 288 288 287 285 282 279 279 279 278 276 272 266 262 259 255 254 256 257 257 256 254 250 246 243 240 236 233 229 228 225 221 221 223 221 219 220 220
346 65 74 298 302 309 277 293 319 328 322 201 27 4 311 353 48 46 56 78 83 84 87 85 86 89 87 84 80 77 74 70 68 65 62 60 59 58 57 57 59 60 58 52 46 43 43 44 41 31 12 337 303 289 287 290 287 282 280 279 279 279 278 278 278 279 283 285 284 284 280 273 267 262 258 256 256 258 258 258 256 251 248 245 242 240 237 234 231 227 222 221 223 221 220 222 221
335 318 304 291 306 307 297 312 342 2 340 340 52 28 295 353 60 73 60 74 78 77 83 86 87 86 85 84 80 76 72 68 67 64 61 59 58 58 57 56 57 58 55 50 47 47 47 48 47 42 34 18 334 299 288 288 285 276 271 267 267 270 273 276 277 280 284 286 288 291 289 283 273 265 261 260 259 259 259 260 258 254 249 246 244 242 239 236 234 229 225 224 224 223 223 226 226
356 291 301 322 343 328 310 321 349 23 296 307 76 103 266 337 40 52 47 73 78 79 86 88 86 84 84 83 78 72 69 67 66 65 64 62 61 61 61 60 59 57 52 49 48 48 49 50 49 47 42 34 19 348 312 296 288 280 272 265 263 267 270 274 276 280 282 281 283 286 286 284 278 271 267 265 262 260 259 261 259 256 253 249 246 245 242 239 236 234 231 229 226 225 226 228 230
322 285 330 3 355 326 311 318 305 225 269 329 43 124 216 333 20 348 358 71 76 77 83 83 86 88 85 80 75 72 71 70 69 68 67 65 65 64 64 64 62 57 52 47 46 46 48 50 49 48 45 38 29 19 7 341 306 287 275 268 268 272 276 280 283 282 282 282 284 283 280 277 276 276 273 271 268 263 259 260 259 256 254 252 249 247 245 242 240 237 234 231 229 228 228 229 231
271 295 1 14 344 305 299 304 278 279 53 345 324 59 112 322 334 327 356 74 76 72 78 79 82 83 80 76 75 74 72 70 69 68 66 65 65 64 62 62 59 54 49 45 41 39 40 42 43 44 42 38 32 24 17 9 348 317 294 279 275 277 279 286 292 288 281 278 280 281 280 274 268 268 271 271 271 268 262 260 260 258 255 252 250 248 247 246 243 238 234 232 230 230 230 229 231
271 340 14 360 343 314 298 291 280 24 64 293 291 330 108 193 301 328 358 80 85 73 66 64 70 72 71 70 69 69 68 66 65 63 61 58 56 56 54 52 50 46 43 41 36 33 31 31 32 33 34 32 28 24 18 14 8 353 330 303 291 292 289 284 285 285 280 275 274 276 279 275 267 263 266 268 269 268 267 263 260 259 257 253 250 249 247 247 245 241 237 235 234 232 230 230 232
357 31 17 351 347 346 349 349 68 68 60 237 272 317 103 160 296 344 358 67 94 96 84 74 72 73 72 70 67 67 66 63 61 58 54 48 44 41 37 35 34 32 30 29 27 25 25 23 20 19 21 20 18 17 14 12 8 4 355 333 315 313 306 290 278 273 271 270 269 270 273 273 269 266 265 265 266 266 266 266 263 260 259 255 250 248 246 246 246 244 240 238 236 234 232 232 233
52 54 27 8 346 352 11 357 35 87 244 248 278 346 75 133 266 50 47 51 75 96 100 91 80 79 79 77 73 69 66 61 57 52 47 42 37 32 29 28 27 26 25 25 22 19 19 18 13 8 6 4 4 5 6 6 4 1 359 353 339 327 315 302 289 278 271 268 265 265 267 268 268 268 265 260 263 264 262 262 263 262 260 257 252 249 246 245 246 246 244 241 238 236 235 234 234
41 55 55 50 1 358 11 336 355 107 244 245 287 337 43 112 76 84 80 70 79 97 104 105 100 92 85 81 77 70 65 59 52 46 41 36 33 31 28 27 26 26 27 25 21 16 13 14 12 7 360 353 351 349 349 352 354 353 352 352 349 338 322 311 303 291 282 275 267 263 263 264 264 265 264 261 261 264 262 260 261 264 266 263 259 255 251 247 246 246 245 243 240 238 237 237 236
4 57 86 84 89 47 342 289 322 305 270 272 303 333 128 160 55 89 105 99 102 101 102 105 101 95 87 79 71 63 58 53 48 45 41 37 35 32 29 29 30 31 31 26 20 16 12 12 13 11 5 354 343 338 336 334 334 337 338 339 342 341 332 316 304 298 295 287 276 266 262 262 262 262 262 264 263 261 260 260 258 262 267 268 264 260 257 252 248 247 247 244 241 239 239 239 239
299 162 119 122 150 134 223 230 223 271 282 301 317 340 190 192 168 137 124 116 110 103 100 98 94 91 83 71 61 55 52 49 48 47 45 43 40 36 33 33 34 32 29 25 21 16 11 10 9 9 9 3 348 335 332 328 323 322 323 323 326 331 333 328 315 301 296 294 288 276 266 261 262 262 261 263 265 261 257 257 257 258 261 265 266 262 258 254 251 248 247 245 242 240 239 240 240
281 122 81 127 178 155 182 205 195 206 286 310 302 333 13 140 133 144 139 123 110 106 98 91 87 80 70 59 51 46 42 40 41 41 43 43 40 37 38 38 33 26 20 17 14 8 3 1 0 2 4 4 359 345 336 332 326 322 320 317 315 317 322 326 325 315 304 297 293 287 278 268 263 264 263 261 263 261 256 254 256 257 255 256 260 261 257 254 253 250 248 246 244 240 239 239 240
288 25 328 245 184 138 135 281 283 96 86 279 263 108 78 102 131 184 163 123 90 90 84 81 79 69 61 54 46 39 33 31 32 32 33 31 30 30 31 29 23 17 13 9 4 358 354 352 352 354 356 357 359 359 348 336 329 324 322 321 318 316 315 317 320 321 317 307 296 290 285 276 267 265 265 262 260 259 258 258 257 254 253 252 252 256 257 256 255 252 249 247 246 242 238 239 239
87 342 276 267 16 92 116 312 342 32 73 273 288 192 175 183 199 204 189 145 101 78 73 78 73 65 61 52 40 31 24 20 19 19 18 17 18 17 17 15 9 4 0 356 354 351 347 347 349 351 353 352 354 358 357 346 336 328 323 321 322 321 318 316 316 316 317 312 303 296 289 281 272 266 265 264 261 256 257 260 257 252 253 253 250 249 252 254 253 253 251 248 247 243 238 237 237
83 313 289 9 44 337 8 73 295 342 261 269 296 270 205 205 202 190 199 179 152 178 173 126 94 76 64 47 37 28 18 12 8 9 10 10 9 8 8 5 358 352 349 345 342 341 341 344 346 347 347 348 349 352 355 352 343 335 329 323 321 320 319 317 315 314 313 310 306 303 295 285 276 267 264 265 264 258 256 258 256 252 252 253 252 250 249 247 247 249 250 249 246 242 239 237 238
16 4 347 27 146 192 260 197 176 198 231 233 282 295 266 232 205 188 191 176 166 185 189 179 157 103 73 52 57 29 2 358 10 17 14 9 3 1 359 353 348 346 344 342 338 337 337 337 339 341 341 340 343 347 350 350 345 338 333 327 322 318 316 314 313 311 311 311 311 309 299 289 281 272 265 265 264 259 255 254 251 249 249 249 249 250 246 241 240 244 247 248 245 242 241 240 240
334 355 340 332 329 131 359 274 186 159 194 206 218 266 268 253 207 178 174 173 185 186 170 178 170 132 115 163 177 343 345 340 359 10 2 359 357 355 350 344 341 338 336 336 334 332 332 330 333 338 339 337 341 344 346 346 345 339 332 329 325 322 317 312 309 307 305 306 310 313 306 294 286 280 270 262 260 258 255 252 248 246 246 243 241 244 243 238 236 238 241 244 244 243 243 242 240
258 280 284 299 321 20 39 300 305 54 157 193 179 232 267 264 162 146 159 179 196 176 158 180 180 151 148 191 273 337 349 335 250 333 344 346 350 346 339 335 331 332 331 330 329 327 327 329 331 335 336 335 337 338 340 341 341 338 332 326 324 323 320 314 308 304 302 301 303 308 311 303 292 288 277 259 253 256 256 252 248 245 243 238 235 238 239 237 237 237 237 238 240 241 241 240 237